Fairbanks Eiels, AK

5:43 AM AKDT on October 20, 2017 (GMT -0800)
Eielson Air Force Base

Weather History for PAEI - April, 2013

Change the Weather History Date:

Saturday, April 27, 2013

  Actual Average Record
Temperature  
Mean Temperature 22 °F -  
Max Temperature 28 °F 48 °F 73 °F (2005)
Min Temperature 17 °F 29 °F 14 °F (1950)
Degree Days  
Heating Degree Days 42    
Moisture  
Dew Point 14 °F    
Average Humidity 73    
Maximum Humidity 94    
Minimum Humidity 28    
Precipitation  
Precipitation 0.00 in - - ()
Sea Level Pressure  
Sea Level Pressure 29.85 in    
Wind  
Wind Speed 4 mph (North)    
Max Wind Speed 18 mph    
Max Gust Speed -    
Visibility 7 miles    
Events Rain , Snow    
Averages and records for this station are not official NWS values.
T = Trace of Precipitation, MM = Missing Value Source: NWS Daily Summary

Daily Weather History Graph

Daily Weather History Graph

Search for Another Location

Airport or City:

Trip Planner

Search our weather history database for the weather conditions in past years. The results will help you decide how hot, cold, wet, or windy it might be!

Date:

Astronomy

Apr. 27, 2013 Rise Set
Actual Time 5:29 AM AKDT 10:04 PM AKDT
Civil Twilight 4:21 AM AKDT 11:13 PM AKDT
Nautical Twilight 2:18 AM AKDT 1:13 AM AKDT
Astronomical Twilight Sun does not rise Sun does not rise
Moon 12:16 AM AKDT (4/27) 6:12 AM AKDT (4/27)
Length of Visible Light 18h 52m
Length of Day
16h 35m
Waning Gibbous, 94% of the Moon is Illuminated
Apr 27
Waning Gibbous
May 2
Last Quarter
May 9
New
May 17
First Quarter
May 24
Full

Hourly Weather History & Observations

Time (AKDT) Temp. Windchill Dew Point Humidity Pressure Visibility Wind Dir Wind Speed Gust Speed Precip Events Conditions
12:11 AM 26.6 °F - 21.2 °F 80% 29.68 in 10.0 mi Calm Calm - N/A   Overcast
12:20 AM 26.6 °F - 21.2 °F 80% 29.68 in 7.0 mi Calm Calm - N/A Snow Light Snow
12:32 AM 24.8 °F - 21.2 °F 86% 29.69 in 8.0 mi Calm Calm - N/A Snow Light Snow
12:47 AM 24.8 °F - 21.2 °F 86% 29.69 in 10.0 mi Calm Calm - N/A   Overcast
12:55 AM 25.0 °F - 21.9 °F 88% 29.70 in 10.0 mi Calm Calm - 0.00 in   Overcast
1:17 AM 24.8 °F - 21.2 °F 86% 29.70 in 10.0 mi Calm Calm - N/A   Overcast
1:49 AM 24.8 °F - 23.0 °F 93% 29.71 in 10.0 mi Calm Calm - N/A   Overcast
1:55 AM 25.5 °F 19.9 °F 22.5 °F 88% 29.72 in 10.0 mi Variable 4.6 mph - N/A   Overcast
2:13 AM 24.8 °F - 23.0 °F 93% 29.72 in 10.0 mi Calm Calm - N/A   Overcast
2:55 AM 24.6 °F 20.3 °F 22.6 °F 92% 29.73 in 10.0 mi NW 3.5 mph - 0.00 in   Overcast
3:51 AM 23.0 °F 15.8 °F 21.2 °F 93% 29.75 in 7.0 mi WNW 5.8 mph - N/A   Mostly Cloudy
3:55 AM 22.6 °F 16.5 °F 21.2 °F 94% 29.75 in 6.0 mi WNW 4.6 mph - 0.00 in   Mostly Cloudy
3:58 AM 23.0 °F 15.8 °F 21.2 °F 93% 29.75 in 4.0 mi WNW 5.8 mph - N/A   Mostly Cloudy
4:05 AM 23.0 °F 17.0 °F 21.2 °F 93% 29.75 in 1.2 mi WNW 4.6 mph - N/A   Mostly Cloudy
4:09 AM 23.0 °F 18.4 °F 21.2 °F 93% 29.75 in 1.0 mi Variable 3.5 mph - N/A   Overcast
4:22 AM 21.2 °F 14.9 °F 19.4 °F 93% 29.76 in 0.8 mi NW 4.6 mph - N/A   Overcast
4:23 AM 21.2 °F 14.9 °F 19.4 °F 93% 29.76 in 0.8 mi NW 4.6 mph - N/A   Light Freezing Drizzle
4:24 AM 21.2 °F 14.9 °F 19.4 °F 93% 29.76 in 0.8 mi NW 4.6 mph - N/A   Light Freezing Drizzle
4:45 AM 21.2 °F - 19.4 °F 93% 29.77 in 0.8 mi Calm Calm - N/A Rain Light Freezing Rain
4:46 AM 21.2 °F - 19.4 °F 93% 29.77 in 1.0 mi Calm Calm - N/A Rain Light Freezing Rain
4:55 AM 21.4 °F - 19.4 °F 92% 29.78 in 1.0 mi Calm Calm - 0.00 in   Overcast
5:00 AM 21.2 °F - 19.4 °F 93% 29.78 in 0.8 mi Calm Calm - N/A   Overcast
5:01 AM 21.2 °F - 19.4 °F 93% 29.78 in 0.8 mi Calm Calm - N/A   Overcast
5:05 AM 21.2 °F 16.4 °F 19.4 °F 93% 29.78 in 0.8 mi NNW 3.5 mph - N/A   Overcast
5:17 AM 21.2 °F - 19.4 °F 93% 29.79 in 3.0 mi Calm Calm - N/A   Overcast
5:22 AM 21.2 °F 16.4 °F 19.4 °F 93% 29.79 in 9.0 mi Variable 3.5 mph - N/A   Overcast
5:32 AM 19.4 °F - 17.6 °F 93% 29.80 in 10.0 mi Calm Calm - N/A   Overcast
5:55 AM 19.0 °F 13.9 °F 16.7 °F 91% 29.81 in 10.0 mi NNW 3.5 mph - 0.00 in   Overcast
6:05 AM 19.4 °F 11.5 °F 15.8 °F 86% 29.81 in 10.0 mi North 5.8 mph - N/A   Overcast
6:35 AM 19.4 °F 10.4 °F 17.6 °F 93% 29.82 in 10.0 mi Variable 6.9 mph - N/A   Overcast
6:55 AM 18.1 °F 7.1 °F 15.8 °F 91% 29.83 in 10.0 mi North 9.2 mph - N/A   Mostly Cloudy
7:55 AM 19.9 °F 12.1 °F 17.8 °F 91% 29.86 in 10.0 mi NNW 5.8 mph - N/A   Scattered Clouds
8:55 AM 23.9 °F 13.5 °F 14.9 °F 69% 29.89 in 10.0 mi NE 10.4 mph - N/A   Scattered Clouds
9:06 AM 26.6 °F 14.7 °F 12.2 °F 55% 29.89 in 10.0 mi ENE 15.0 mph - N/A   Scattered Clouds
9:55 AM 27.0 °F 14.3 °F 9.1 °F 47% 29.92 in 10.0 mi NNE 17.3 mph - N/A   Scattered Clouds
10:55 AM 27.0 °F 14.7 °F 6.1 °F 41% 29.95 in 10.0 mi NNE 16.1 mph - N/A   Clear
11:55 AM 27.1 °F 15.4 °F 3.9 °F 37% 29.97 in 10.0 mi NE 15.0 mph - N/A   Partly Cloudy
12:55 PM 27.3 °F 14.4 °F 4.6 °F 38% 29.99 in 10.0 mi North 18.4 mph - N/A   Partly Cloudy
1:55 PM 27.5 °F 19.3 °F 1.9 °F 33% 30.02 in 10.0 mi NNE 8.1 mph - N/A   Partly Cloudy
2:55 PM 26.8 °F 14.1 °F 6.8 °F 43% 30.03 in 10.0 mi North 17.3 mph - N/A   Partly Cloudy
3:55 PM 26.4 °F 13.6 °F 3.7 °F 38% 30.05 in 10.0 mi North 17.3 mph - N/A   Scattered Clouds
4:55 PM 26.4 °F 14.0 °F 2.3 °F 36% 30.06 in 10.0 mi North 16.1 mph - N/A   Clear
5:55 PM 27.0 °F 14.7 °F -0.2 °F 31% 30.08 in 10.0 mi North 16.1 mph - N/A   Clear
6:55 PM 27.0 °F 16.7 °F -2.7 °F 28% 30.10 in 10.0 mi NE 11.5 mph - N/A   Clear
7:55 PM 26.2 °F 14.7 °F -2.7 °F 28% 30.11 in 10.0 mi NNE 13.8 mph - N/A   Clear
8:55 PM 24.4 °F 15.6 °F -3.1 °F 30% 30.12 in 10.0 mi NE 8.1 mph - N/A   Clear
9:55 PM 21.6 °F 11.3 °F -4.0 °F 33% 30.14 in 10.0 mi NE 9.2 mph - N/A   Clear
10:55 PM 19.0 °F 11.1 °F -5.8 °F 33% 30.15 in 10.0 mi NE 5.8 mph - N/A   Clear
11:55 PM 17.6 °F 9.3 °F -5.6 °F 36% 30.16 in 10.0 mi NE 5.8 mph - N/A   Clear